This demonstration page uses our WeatherBlox Daily Observations layout. Learn more.

Left ArrowRight Arrow

39.08367, -84.50855

Hourly Observations for April 12, 2020

Temp ( °F °C ) Dew Point ( °F °C ) Humidity (%) Winds ( mph kmh ) Pressure ( in mb ) Visibility ( mi km ) Precip ( " mm )
12:53 am 00:53 Cloudy with Light Rain 47 8.3 44 6.7 90 90 N 3 6 29.92 1013 10 16 0.03 0.76
1:53 am 01:53 Cloudy 48 8.9 45 7.2 89 89 WSW 5 7 29.92 1013 10 16 0.00 0.00
2:53 am 02:53 Cloudy 47 8.3 45 7.2 93 93 N 3 6 29.90 1013 10 16 0.00 0.00
3:53 am 03:53 Cloudy 48 8.9 43 6.1 83 83 Calm 29.87 1011 10 16 0.00 0.00
4:53 am 04:53 Cloudy 48 8.9 45 7.2 89 89 SW 5 7 29.86 1011 10 16 0.00 0.00
5:53 am 05:53 Partly Cloudy 46 7.8 45 7.2 96 96 Calm 29.85 1011 10 16 0.00 0.00
6:53 am 06:53 Mostly Cloudy 46 7.8 39 3.9 77 77 SSW 7 11 29.85 1011 10 16 0.00 0.00
7:53 am 07:53 Cloudy 51 10.6 41 5 69 69 SSW 7 11 29.86 1011 10 16 0.00 0.00
8:53 am 08:53 Cloudy 53 11.7 42 5.6 66 66 SSW 8 13 29.88 1012 10 16 0.00 0.00
9:53 am 09:53 Cloudy 55 12.8 42 5.6 62 62 SSW 7 11 29.89 1012 10 16 0.00 0.00
10:53 am 10:53 Cloudy 58 14.4 45 7.2 62 62 S 8 13 29.87 1012 10 16 0.00 0.00
11:53 am 11:53 Cloudy 61 16.1 48 8.9 63 63 S 14 22 29.88 1012 10 16 0.00 0.00
12:53 pm 12:53 Mostly Cloudy 64 17.8 48 8.9 56 56 S 16 26 29.85 1011 10 16 0.00 0.00
1:53 pm 13:53 Cloudy 64 17.8 48 8.9 56 56 S 17 28 29.83 1010 10 16 0.00 0.00
2:53 pm 14:53 Cloudy 62 16.7 48 8.9 60 60 SSW 10 17 29.79 1009 10 16 0.00 0.00
3:53 pm 15:53 Cloudy 62 16.7 47 8.3 58 58 S 12 19 29.74 1007 10 16 0.00 0.00
4:53 pm 16:53 Cloudy 61 16.1 47 8.3 60 60 SE 6 9 29.72 1006 10 16 0.00 0.00
5:53 pm 17:53 Cloudy 60 15.6 47 8.3 62 62 S 5 7 29.70 1006 10 16 0.00 0.00
6:31 pm 18:31 Cloudy with Rain 57 13.9 52 11.1 83 83 S 10 17 29.69 1005 3 4 0.06 1.52
6:53 pm 18:53 Cloudy with Light Rain 56 13.3 54 12.2 93 93 SSE 3 6 29.67 1005 4 6 0.11 2.79
7:53 pm 19:53 Cloudy with Rain 56 13.3 54 12.2 93 93 VRB 3 6 29.64 1004 4 6 0.10 2.54
8:10 pm 20:10 Cloudy with Rain 56 13.3 54 12.2 93 93 E 5 7 29.60 1002 5 8 0.02 0.51
8:21 pm 20:21 Cloudy with Rain 56 13.3 54 12.2 93 93 E 7 11 29.55 1001 5 8 0.04 1.02
8:53 pm 20:53 Cloudy 57 13.9 55 12.8 93 93 SE 8 13 29.55 1001 10 16 0.06 1.52
9:51 pm 21:51 Cloudy with Light Rain 57 14 55 13 94 94 ESE 3 6 29.53 1000 3 5 0.06 1.52
9:53 pm 21:53 Cloudy with Rain 57 13.9 55 12.8 93 93 E 3 6 29.53 1000 3 5 0.06 1.52
10:53 pm 22:53 Cloudy with Light Rain 57 13.9 56 13.3 96 96 Calm 29.49 999 6 10 0.02 0.51

Powered by AerisWeather